User: anonymous   Login
Location: Unspecified
(0.0000°N, 0.0000°E)
Time: 05:16:50
(UTC+00:00)
Language:

COMPASS 2 - Orbit

View from above orbital plane
View from above orbital plane
View from above satellite
View from above satellite

Ground track
Ground track

The orbit data is extracted from the following two-line orbital elements,

1 42777U 17036N   19083.71297365  .00001280  00000-0  57986-4 0  9995
2 42777  97.3649 143.5340 0013411 156.8773 203.3070 15.22590515 97189
Epoch (UTC): 24 March 2019 17:06:40
Eccentricity: 0.0013411
inclination: 97.3649°
perigee height: 489 km
apogee height: 507 km
right ascension of ascending node: 143.5340°
argument of perigee: 156.8773°
revolutions per day: 15.22590515
mean anomaly at epoch: 203.3070°
orbit number at epoch: 9718

The dashed part of the orbit path shows where the satellite is in the earth's shadow,  

DLR